Regional Weather Roundup
Issued by NWS

Home | Current Version | Previous Version | Text Only | Print | Product List | Glossary Off
Versions: 1 2 3 4 5 6 7 8 9 10 11 12 13 14 15 16 17 18 19 20 21 22 23 24 25 26 27 28 29 30 31 32 33 34 35 36 37 38 39 40 41 42 43 44 45 46 47 48 49 50

000
ASUS43 KDMX 021407
RWRIA

WEATHER ROUNDUP FOR IOWA
NATIONAL WEATHER SERVICE DES MOINES IA
900 AM CDT WED SEP 02 2015

NOTE: "FAIR" INDICATES FEW OR NO CLOUDS BELOW 12,000 FEET WITH NO
SIGNIFICANT WEATHER AND/OR OBSTRUCTIONS TO VISIBILITY.

* - THESE STATIONS ARE NOT NWS STATIONS...THUS NOT UNDER NWS
QUALITY CONTROL.  THEY ALSO DO NOT REPORT WEATHER SUCH
AS PRECIPITATION OR FOG.

IAZ001>003-012>014-020>022-031>034-043>046-021500-
   NORTHWEST IOWA

CITY           SKY/WX    TMP DP  RH WIND       PRES   REMARKS
CARROLL *      SUNNY     73  70  88 S13       29.95S
CHEROKEE *     SUNNY     73  70  88 S12       29.91S
DENISON *      SUNNY     73  70  88 S15       29.91S
LE MARS *      SUNNY     73  70  88 S10       29.89F
ORANGE CITY *  SUNNY     72  68  88 S12       29.89F
SHELDON *      SUNNY     72  70  94 S10       29.89S
SIOUX CITY     SUNNY     73  67  81 SE13      29.88S
SPENCER        SUNNY     74  67  78 S14       29.91F
STORM LAKE *   SUNNY     72  68  88 S15       29.93F
$$

IAZ055>058-069>071-079>083-090>094-021500-
   SOUTHWEST IOWA

CITY           SKY/WX    TMP DP  RH WIND       PRES   REMARKS
ATLANTIC *     SUNNY     75  70  83 S15G23    29.96S
AUDUBON *      SUNNY     75  70  83 S15       29.97S
CLARINDA *     CLOUDY    72  70  94 S10G20    30.01S
COUNCIL BLFS * SUNNY     75  68  78 MISG      29.94S
CRESTON *      PTSUNNY   70  68  94 S16G23    30.02S
LAMONI         LGT RAIN  70  68  93 S7        30.08R FOG
RED OAK *      SUNNY     75  70  83 S18G24    29.97S
SHENANDOAH *   SUNNY     75  70  83 SE18G25   29.97S
$$

IAZ047>049-059>061-072>074-084-021500-
   CENTRAL IOWA

CITY           SKY/WX    TMP DP  RH WIND       PRES   REMARKS
AMES           MOSUNNY   74  68  81 S21G26    29.97S
ANKENY *       SUNNY     72  70  94 S14G21    29.98S
CHARITON *     LGT RAIN  70  70 100 S8        30.06F
DES MOINES     PTSUNNY   73  68  84 S16       29.99F
GRINNELL*      CLOUDY    70  68  94 S9        30.01R
KNOXVILLE *    CLOUDY    70  68  94 S10       30.01F FOG
MARSHALLTOWN   PTSUNNY   73  69  87 S14       29.97F
PELLA *        LGT RAIN  70  70 100 S8        30.01F
PERRY *          N/A     73  70  88 S13G20    29.96F
$$

IAZ004>006-015-016-023>025-035-036-021500-
   NORTH CENTRAL IOWA

CITY           SKY/WX    TMP DP  RH WIND       PRES   REMARKS
ALGONA *       SUNNY     73  68  83 S14G20    29.94S
CLARION *      SUNNY     73  66  78 S15       29.95S
ESTHERVILLE    SUNNY     71  67  87 S16       29.92F
FORT DODGE *   SUNNY     73  64  73 S13       29.96S
MASON CITY     MOSUNNY   73  67  81 S10       29.97F
FOREST CITY *  SUNNY     73  64  73 S9        29.95F
IOWA FALLS *     N/A     73  66  78 S13       29.97S
$$

IAZ007>011-017>019-026>030-037>042-050>054-066-021500-
   NORTHEAST IOWA

CITY           SKY/WX    TMP DP  RH WIND       PRES   REMARKS
CEDAR RAPIDS   CLOUDY    71  70  96 S12       29.99F FOG
CHARLES CITY * MOSUNNY   70  70 100 SE5       29.99F FOG
CLINTON *      MOSUNNY   75  72  88 SW9       30.07S
DECORAH *      SUNNY     72  68  88 VRB7      29.99S
DUBUQUE        PTSUNNY   73  69  87 S12       30.03F
MONTICELLO *   SUNNY     73  70  88 S7        30.01F
OELWEIN *        N/A    N/A N/A N/A S3        30.01S
WATERLOO       CLOUDY    71  68  90 SE5       29.98R
$$

IAZ064-065-067-068-078-021500-
   EAST CENTRAL IOWA

CITY           SKY/WX    TMP DP  RH WIND       PRES   REMARKS
DAVENPORT      PTSUNNY   78  70  76 SW7       30.06S HX  80
IOWA CITY      CLOUDY    72  69  90 S8        30.03F
MT. PLEASANT * CLOUDY    75  70  83 S5        30.07F HAZE
MUSCATINE *    SUNNY     75  70  83 S6        30.05F
QUAD CITIES    PTSUNNY   79  69  71 W7        30.05F HX  81
$$

IAZ062-063-075>077-085>089-095>099-021500-
   SOUTHEAST IOWA

CITY           SKY/WX    TMP DP  RH WIND       PRES   REMARKS
BURLINGTON     CLOUDY    75  72  90 SW7       30.07S
FAIRFIELD *    SUNNY     72  68  88 SW6       30.06F
FORT MADISON * SUNNY     75  72  88 SW6       30.08F
KEOKUK *       SUNNY     75  72  88 SW8       30.07S
OSKALOOSA *    RAIN      68  68 100 S7        30.05F
CENTERVILLE *  LGT RAIN  70  68  94 NW5       30.10R
OTTUMWA        RAIN      70  69  97 W8        30.06R FOG
WASHINGTON *     N/A    N/A N/A N/A MISG        N/A
$$

ABBREVIATIONS USED IN REMARKS
   TC - TEMPERATURES IN CELSIUS
  WCI - WIND CHILL INDEX
   HX - HEAT INDEX
  VSB - VISIBILITY
$$




USA.gov is the U.S. government's official web portal to all federal, state and local government web resources and services.